Regional Weather Roundup
Issued by NWS Cleveland, OH

Home | Current Version | Previous Version | Text Only | Print | Product List | Glossary Off
Versions: 1 2 3 4 5 6 7 8 9 10 11 12 13 14 15 16 17 18 19 20 21 22 23 24 25 26 27 28 29 30 31 32 33 34 35 36 37 38 39 40 41 42 43 44 45 46 47 48 49 50

000
ASUS41 KCLE 181002
RWRCLE
OHIO REGIONAL WEATHER ROUNDUP
NATIONAL WEATHER SERVICE CLEVELAND, OH
600 AM EDT FRI AUG 18 2017

NOTE: "FAIR" INDICATES FEW OR NO CLOUDS BELOW 12,000 FEET WITH NO
SIGNIFICANT WEATHER AND/OR OBSTRUCTIONS TO VISIBILITY.

OHZ001>008-015>018-024>027-034-035-043-044-181100-
   NORTHWEST OHIO

CITY           SKY/WX    TMP DP  RH WIND       PRES   REMARKS
DEFIANCE       CLEAR     68  64  87 SW6       29.79R
FINDLAY        CLEAR     71  65  81 SW7       29.79R
TOLEDO EXPRESS CLEAR     68  67  96 SW7       29.76R
TOLEDO EXEC    CLEAR     70  68  93 SW8       29.78R
LIMA           CLEAR     68  67  96 SW6       29.82R
$$

OHZ009>014-019>023-028>033-038-089-181100-
   NORTHEAST OHIO

CITY           SKY/WX    TMP DP  RH WIND       PRES   REMARKS
CLE-HOPKINS    CLEAR     74  70  87 S9        29.80R
CLE-LAKEFRONT  PTCLDY    74  69  85 S10       29.77R
CUY CO. ARPT   NOT AVBL
LORAIN-ELYRIA  PTCLDY    69  64  84 SW7       29.80R
ASHTABULA      PTCLDY    71  71 100 S7        29.81R
AKRON-CANTON   CLOUDY    74  70  87 SW6       29.83R
WOOSTER        PTCLDY    71  70  96 SW6       29.83R
MANSFIELD      CLEAR     71  70  96 SW6       29.83R
YOUNGSTOWN     CLOUDY    71  70  96 S5        29.82S
$$

OHZ042-051>053-060>062-070>072-077>081-181100-
  SOUTHWEST OHIO

CITY           SKY/WX    TMP DP  RH WIND       PRES   REMARKS
CINC-COVINGTON MOCLDY    73  73 100 SW5       29.88R
CINC-LUNKEN    MOCLDY    74  73  97 CALM      29.87R
HAMILTON       PTCLDY    72  72 100 CALM      29.87R FOG
DAYTON         PTCLDY    71  69  93 SW8       29.87R
WRIGHT-PAT AFB NOT AVBL
DAYTON GENERAL MOCLDY    73  71  93 SW8       29.86R
WILMINGTON     CLOUDY    72  72 100 SW7       29.86R FOG
$$

OHZ036-037-039>041-045>050-054>059-063>069-073>076-082>088-181100-
  CENTRAL AND SOUTHEAST OHIO

CITY           SKY/WX    TMP DP  RH WIND       PRES   REMARKS
COLUMBUS       CLOUDY    74  74 100 SW7       29.84R
OSU AIRPORT    MOCLDY    73  73 100 SW7       29.84R
BOLTON FIELD   MOCLDY    72  72 100 SW5       29.85R FOG
RICKENBACK AFB CLOUDY    72  72 100 SW3       29.84R FOG
NEWARK         CLOUDY    74  72  93 SW7       29.84R
MARION         CLEAR     71  69  93 SW8       29.83R
LANCASTER      CLOUDY    74  73  97 SW8       29.85R
ZANESVILLE     CLOUDY    74  71  91 SW3       29.84S
NEW PHILLY     NOT AVBL
$$




USA.gov is the U.S. government's official web portal to all federal, state and local government web resources and services.